Buffalo, MN

5:38 PM CST on November 18, 2019 (GMT -0600)
Buffalo

Weather History for KCFE - October, 2019

Change the Weather History Date:

Monday, October 21, 2019

  Actual Average (WUND) Record (WUND)
Temperature  
Mean Temperature 48 °F -  
Max Temperature 55 °F - - (-1)
Min Temperature 41 °F - - (-1)
Degree Days  
Heating Degree Days 17    
Moisture  
Dew Point 43 °F    
Average Humidity 83    
Maximum Humidity 95    
Minimum Humidity 45    
Precipitation  
Precipitation 0.96 in - - ()
Sea Level Pressure  
Sea Level Pressure 29.32 in    
Wind  
Wind Speed - (North)    
Max Wind Speed -    
Max Gust Speed -    
Visibility 8 miles    
Events Rain    
Averages and records for this station are not official NWS values.
T = Trace of Precipitation, MM = Missing Value Source: NWS Daily Summary

Daily Weather History Graph

Daily Weather History Graph

Search for Another Location

Airport or City:

Astronomy

Oct. 21, 2019 Rise Set
Actual Time 7:38 AM CDT 6:20 PM CDT
Civil Twilight 7:08 AM CDT 6:50 PM CDT
Nautical Twilight 6:34 AM CDT 7:24 PM CDT
Astronomical Twilight 6:00 AM CDT 7:58 PM CDT
Moon No Moon Rise 3:07 PM CDT (10/21)
Length of Visible Light 11h 41m
Length of Day
10h 41m
Waning Gibbous, 48% of the Moon is Illuminated
Oct 21
Waning Gibbous
Oct 27
New
Nov 4
First Quarter
Nov 12
Full
Nov 19
Last Quarter

Hourly Weather History & Observations

Time (CDT) Temp. Dew Point Humidity Pressure Visibility Wind Dir Wind Speed Gust Speed Precip Events Conditions
12:15 AM 55.6 °F 42.1 °F 60% 29.73 in 10.0 mi North - - N/A   Overcast
12:35 AM 55.2 °F 41.9 °F 61% 29.72 in 10.0 mi North - - N/A   Overcast
12:55 AM 54.9 °F 41.0 °F 60% 29.72 in 10.0 mi North - - N/A   Overcast
12:56 AM 54.9 °F 41.0 °F 60% 29.72 in 10.0 mi North - - N/A   Overcast
1:15 AM 54.9 °F 40.1 °F 58% 29.70 in 10.0 mi North - - N/A   Overcast
1:16 AM 54.9 °F 40.1 °F 58% 29.70 in 10.0 mi North - - N/A   Overcast
1:35 AM 54.9 °F 39.7 °F 57% 29.67 in 10.0 mi North - - N/A   Overcast
1:55 AM 54.9 °F 39.6 °F 56% 29.68 in 10.0 mi North - - N/A   Overcast
2:15 AM 54.9 °F 40.1 °F 58% 29.67 in 10.0 mi North - - N/A   Overcast
2:35 AM 54.9 °F 40.5 °F 58% 29.64 in 10.0 mi North - - N/A   Overcast
2:36 AM 54.9 °F 40.5 °F 58% 29.64 in 10.0 mi North - - N/A   Overcast
2:55 AM 54.9 °F 40.6 °F 59% 29.64 in 10.0 mi North - - N/A   Mostly Cloudy
3:35 AM 54.5 °F 41.0 °F 60% 29.63 in 10.0 mi North - - N/A   Overcast
3:55 AM 54.5 °F 40.3 °F 59% 29.62 in 10.0 mi North - - N/A   Overcast
4:16 AM 55.2 °F 34.3 °F 45% 29.59 in 10.0 mi North - - N/A   Overcast
4:35 AM 55.0 °F 34.9 °F 47% 29.58 in 10.0 mi North - - N/A   Overcast
4:36 AM 55.0 °F 35.1 °F 47% 29.58 in 10.0 mi North - - N/A   Overcast
4:55 AM 54.9 °F 35.2 °F 48% 29.57 in 10.0 mi North - - N/A Rain Light Rain
5:15 AM 54.1 °F 37.2 °F 53% 29.56 in 10.0 mi North - - N/A Rain Light Rain
5:55 AM 51.1 °F 41.5 °F 70% 29.54 in 10.0 mi North - - N/A Rain Light Rain
5:56 AM 51.1 °F 41.5 °F 70% 29.54 in 10.0 mi North - - N/A Rain Light Rain
6:15 AM 49.3 °F 42.8 °F 78% 29.53 in 10.0 mi North - - 0.02 in Rain Light Rain
6:16 AM 49.3 °F 42.8 °F 78% 29.53 in 10.0 mi North - - 0.02 in Rain Light Rain
6:35 AM 48.2 °F 42.4 °F 80% 29.51 in 10.0 mi North - - 0.04 in Rain Light Rain
6:55 AM 47.8 °F 42.8 °F 83% 29.50 in 10.0 mi North - - 0.06 in Rain Light Rain
6:56 AM 47.8 °F 43.0 °F 83% 29.50 in 10.0 mi North - - 0.06 in Rain Light Rain
7:15 AM 47.3 °F 43.0 °F 85% 29.47 in 7.0 mi North - - 0.03 in Rain Rain
7:35 AM 46.9 °F 43.3 °F 87% 29.46 in 7.0 mi North - - 0.07 in Rain Light Rain
7:36 AM 46.9 °F 43.3 °F 87% 29.46 in 7.0 mi North - - 0.08 in Rain Light Rain
7:55 AM 46.6 °F 43.3 °F 88% 29.45 in 7.0 mi North - - 0.12 in Rain Rain
7:56 AM 46.6 °F 43.3 °F 88% 29.45 in 7.0 mi North - - 0.13 in Rain Rain
8:15 AM 46.4 °F 42.8 °F 87% 29.43 in 7.0 mi North - - 0.05 in Rain Rain
8:35 AM 46.4 °F 42.8 °F 87% 29.41 in 10.0 mi North - - 0.07 in Rain Rain
8:55 AM 45.9 °F 42.8 °F 89% 29.41 in 10.0 mi North - - 0.08 in Rain Rain
8:56 AM 45.9 °F 42.8 °F 89% 29.41 in 10.0 mi North - - 0.08 in Rain Rain
9:15 AM 45.5 °F 42.4 °F 89% 29.39 in 7.0 mi North - - 0.03 in Rain Light Rain
9:35 AM 45.9 °F 43.2 °F 90% 29.37 in 7.0 mi North - - 0.05 in Rain Rain
9:55 AM 45.5 °F 43.0 °F 91% 29.36 in 7.0 mi North - - 0.09 in Rain Light Rain
10:35 AM 45.5 °F 43.0 °F 91% 29.33 in 5.0 mi North - - 0.10 in Rain Rain
10:36 AM 45.5 °F 43.0 °F 91% 29.33 in 5.0 mi North - - 0.10 in Rain Rain
10:55 AM 45.1 °F 42.8 °F 91% 29.31 in 5.0 mi North - - 0.14 in Rain Rain
11:15 AM 45.5 °F 43.2 °F 92% 29.28 in 7.0 mi North - - 0.02 in Rain Rain
11:35 AM 45.5 °F 43.0 °F 91% 29.27 in 7.0 mi North - - 0.03 in Rain Light Rain
11:36 AM 45.5 °F 43.0 °F 91% 29.27 in 7.0 mi North - - 0.03 in Rain Light Rain
11:55 AM 45.5 °F 43.0 °F 91% 29.25 in 10.0 mi North - - 0.04 in Rain Light Rain
12:15 PM 45.5 °F 43.0 °F 91% 29.23 in 7.0 mi North - - 0.01 in Rain Light Rain
12:35 PM 45.5 °F 43.3 °F 92% 29.22 in 5.0 mi North - - 0.04 in Rain Rain
12:55 PM 46.0 °F 43.9 °F 92% 29.19 in 7.0 mi North - - 0.07 in Rain Rain
1:15 PM 46.4 °F 43.9 °F 91% 29.18 in 5.0 mi North - - 0.03 in Rain Rain
1:35 PM 46.4 °F 44.2 °F 92% 29.15 in 7.0 mi North - - 0.08 in Rain Rain
1:55 PM 46.4 °F 44.6 °F 93% 29.13 in 7.0 mi North - - 0.10 in Rain Rain
2:15 PM 46.9 °F 44.8 °F 92% 29.09 in 10.0 mi North - - N/A Rain Light Rain
2:16 PM 46.9 °F 44.8 °F 92% 29.09 in 10.0 mi North - - N/A   Light Drizzle
2:35 PM 47.3 °F 44.8 °F 91% 29.10 in 10.0 mi North - - N/A Rain Light Rain
2:55 PM 47.8 °F 45.3 °F 91% 29.13 in 10.0 mi North - - N/A Rain Light Rain
3:15 PM 47.5 °F 45.1 °F 92% 29.12 in 10.0 mi North - - N/A Rain Light Rain
3:16 PM 47.5 °F 45.1 °F 92% 29.12 in 10.0 mi North - - N/A Rain Light Rain
3:35 PM 47.8 °F 45.7 °F 92% 29.12 in 4.0 mi North - - 0.01 in Rain Light Rain
3:55 PM 47.8 °F 45.7 °F 92% 29.11 in 10.0 mi North - - 0.01 in   Light Drizzle
4:15 PM 48.0 °F 45.9 °F 92% 29.11 in 10.0 mi North - - N/A   Overcast
4:35 PM 48.2 °F 46.4 °F 93% 29.11 in 10.0 mi North - - N/A   Overcast
4:55 PM 48.4 °F 46.4 °F 93% 29.11 in 10.0 mi North - - N/A   Overcast
5:15 PM 48.4 °F 46.6 °F 93% 29.11 in 5.0 mi North - - N/A Rain Heavy Rain
5:35 PM 48.2 °F 46.4 °F 93% 29.10 in 5.0 mi North - - 0.02 in Rain Light Rain
5:36 PM 48.2 °F 46.4 °F 93% 29.10 in 5.0 mi North - - 0.02 in Rain Light Rain
5:55 PM 47.8 °F 46.0 °F 93% 29.11 in 5.0 mi North - - 0.04 in Rain Rain
5:56 PM 47.8 °F 46.0 °F 93% 29.11 in 5.0 mi North - - 0.04 in Rain Rain
6:15 PM 47.8 °F 46.0 °F 93% 29.11 in 5.0 mi North - - N/A   Heavy Drizzle
6:35 PM 47.8 °F 46.4 °F 95% 29.11 in 7.0 mi North - - 0.01 in   Overcast
6:36 PM 47.8 °F 46.4 °F 95% 29.11 in 7.0 mi North - - 0.01 in   Overcast
6:55 PM 47.8 °F 46.4 °F 95% 29.11 in 5.0 mi North - - 0.01 in   Light Drizzle
7:15 PM 47.8 °F 46.4 °F 95% 29.12 in 7.0 mi North - - N/A   Overcast
7:16 PM 47.8 °F 46.4 °F 95% 29.12 in 7.0 mi North - - N/A   Overcast
7:35 PM 47.8 °F 46.4 °F 95% 29.12 in 7.0 mi North - - N/A   Overcast
7:55 PM 47.8 °F 46.4 °F 95% 29.13 in 4.0 mi North - - N/A   Overcast
7:56 PM 47.8 °F 46.4 °F 95% 29.13 in 4.0 mi North - - N/A   Overcast
8:15 PM 47.8 °F 46.4 °F 95% 29.13 in 5.0 mi North - - 0.01 in   Drizzle
8:35 PM 47.3 °F 45.7 °F 94% 29.13 in 4.0 mi North - - 0.05 in Rain Rain
8:55 PM 47.3 °F 45.5 °F 93% 29.13 in 4.0 mi North - - 0.10 in Rain Heavy Rain
8:56 PM 47.3 °F 45.5 °F 93% 29.13 in 4.0 mi North - - 0.10 in Rain Heavy Rain
9:15 PM 46.8 °F 45.0 °F 93% 29.14 in 5.0 mi North - - 0.02 in Rain Light Rain
9:35 PM 45.0 °F 42.6 °F 91% 29.15 in 4.0 mi North - - 0.03 in   Heavy Drizzle
9:36 PM 44.8 °F 42.4 °F 91% 29.15 in 4.0 mi North - - 0.03 in   Heavy Drizzle
9:55 PM 43.7 °F 41.4 °F 91% 29.17 in 4.0 mi North - - 0.06 in Rain Rain
10:15 PM 43.2 °F 40.8 °F 91% 29.18 in 7.0 mi North - - 0.01 in Rain Light Rain
10:35 PM 42.8 °F 40.3 °F 91% 29.19 in 5.0 mi North - - 0.02 in Rain Light Rain
10:36 PM 42.8 °F 40.1 °F 90% 29.19 in 5.0 mi North - - 0.02 in Rain Light Rain
10:55 PM 42.4 °F 39.6 °F 90% 29.20 in 5.0 mi North - - 0.03 in Rain Light Rain
11:15 PM 42.1 °F 39.2 °F 90% 29.22 in 7.0 mi North - - N/A Rain Light Rain
11:35 PM 41.9 °F 38.7 °F 88% 29.23 in 5.0 mi North - - N/A Rain Light Rain
11:55 PM 41.9 °F 38.5 °F 88% 29.24 in 7.0 mi North - - N/A   Light Drizzle
11:56 PM 41.9 °F 38.5 °F 88% 29.24 in 7.0 mi North - - N/A   Light Drizzle